Location: Newark
(21.1200°N, 73.4000°E)
Time: 06:17:29
(UTC+00:00)

Explorer 11/Cluster Stage 4 - Pass Details

Date: 29 January 2020
Orbit: 467 x 1259 km, 28.8° (Epoch: 17 February)

Event Time Altitude Azimuth Distance (km) Brightness Sun altitude
Rises 05:51:11 0° 242° (WSW) 3,718 10.0 45.3°
Reaches altitude 10° 05:53:42 10° 241° (WSW) 2,870 9.6 45.5°
Maximum altitude 06:00:58 77° 156° (SSE) 1,210 8.8 46.4°
Drops below altitude 10° 06:09:12 10° 71° (ENE) 3,225 9.9 47.2°
Sets 06:12:11 0° 70° (ENE) 4,200 10.4 47.5°
